Location: Unspecified
(0.0000°N, 0.0000°E)
Time: 19:11:18
(UTC+00:00)

A-11 Canister half - All Passes

Search period start: 10 August 2020 00:00
Search period end: 20 August 2020 00:00
Orbit: 1513 x 1687 km, 47.2° (Epoch: 10 August)

Date Brightness Start Highest point End Pass type
(mag) Time Alt. Az. Time Alt. Az. Time Alt. Az.
10 Aug - 01:40:33 10° NNW 01:50:06 45° NE 01:59:27 10° ESE visible
10 Aug - 03:45:40 10° WNW 03:54:57 41° SW 04:04:04 10° SSE visible
10 Aug - 12:30:19 10° S 12:35:39 16° SE 12:40:59 10° E daylight
10 Aug - 14:31:20 10° SW 14:40:37 89° SE 14:50:05 10° NE daylight
10 Aug - 16:40:04 10° W 16:45:41 17° NW 16:51:26 10° N daylight
11 Aug - 01:17:45 10° NNW 01:27:08 41° NE 01:36:20 10° ESE visible
11 Aug - 03:22:31 10° WNW 03:32:00 45° SW 03:41:19 10° SSE visible
11 Aug - 12:08:01 10° SSE 12:12:41 15° SE 12:17:20 10° ESE daylight
11 Aug - 14:08:27 10° SW 14:17:43 83° SE 14:27:09 10° NE daylight
11 Aug - 16:16:36 10° W 16:22:42 19° NW 16:28:57 10° N daylight
12 Aug - 00:55:00 10° NNW 01:04:09 38° NE 01:13:11 10° ESE night (unlit)
12 Aug - 02:59:24 10° WNW 03:09:03 49° SW 03:18:32 10° SSE visible
12 Aug - 11:45:52 10° SSE 11:49:41 13° SE 11:53:31 10° ESE daylight
12 Aug - 13:45:35 10° SW 13:54:49 76° SE 14:04:11 10° NE daylight
12 Aug - 15:53:12 10° W 15:59:44 21° NW 16:06:24 10° N daylight
13 Aug - 00:32:15 10° NNW 00:41:11 35° NE 00:50:01 10° ESE night (unlit)
13 Aug - 02:36:19 10° NW 02:46:06 54° SW 02:55:45 10° SSE visible
13 Aug - 11:24:00 10° SSE 11:26:42 11° SE 11:29:23 10° ESE daylight
13 Aug - 13:22:44 10° SSW 13:31:56 70° SE 13:41:13 10° NE daylight
13 Aug - 15:29:52 10° W 15:36:46 23° NW 15:43:50 10° N daylight
14 Aug - 00:09:31 10° N 00:18:12 32° NE 00:26:48 10° ESE night (unlit)
14 Aug - 02:13:14 10° NW 02:23:09 58° SW 02:32:56 10° SSE visible
14 Aug - 12:59:55 10° SSW 13:09:02 65° SE 13:18:14 10° NE daylight
14 Aug - 15:06:35 10° W 15:13:49 26° NW 15:21:12 10° N daylight
14 Aug - 23:46:49 10° N 23:55:13 29° NE 00:03:33 10° ESE visible
15 Aug - 01:50:11 10° NW 02:00:12 63° SW 02:10:05 10° SSE night (unlit)
15 Aug - 04:03:40 10° WSW 04:05:46 11° SW 04:07:52 10° SSW visible
15 Aug - 12:37:05 10° SSW 12:46:08 59° SE 12:55:14 10° NE daylight
15 Aug - 14:43:21 10° WSW 14:50:52 28° NW 14:58:33 10° N daylight
15 Aug - 23:24:09 10° N 23:32:14 27° NE 23:40:15 10° E visible
16 Aug - 01:27:09 10° NW 01:37:15 69° SW 01:47:14 10° SSE night (unlit)
16 Aug - 03:39:04 10° WSW 03:42:43 12° SW 03:46:21 10° SSW visible
16 Aug - 12:14:17 10° SSW 12:23:14 54° SE 12:32:13 10° NE daylight
16 Aug - 14:20:08 10° WSW 14:27:56 31° NW 14:35:52 10° N daylight
16 Aug - 23:01:31 10° N 23:09:14 24° NE 23:16:55 10° E visible
17 Aug - 01:04:09 10° NW 01:14:18 74° SW 01:24:22 10° SSE night (unlit)
17 Aug - 03:15:00 10° WSW 03:19:41 14° SW 03:24:20 10° SSW visible
17 Aug - 11:51:30 10° SSW 12:00:20 49° SE 12:09:10 10° ENE daylight
17 Aug - 13:56:58 10° WSW 14:05:00 34° NW 14:13:11 10° NNE daylight
17 Aug - 22:38:56 10° N 22:46:14 22° NE 22:53:31 10° E visible
18 Aug - 00:41:10 10° NW 00:51:21 80° SW 01:01:28 10° SE night (unlit)
18 Aug - 02:51:11 10° W 02:56:39 16° SW 03:02:06 10° SSW night (unlit)
18 Aug - 11:28:43 10° SSW 11:37:26 45° SE 11:46:06 10° ENE daylight
18 Aug - 13:33:50 10° WSW 13:42:05 37° NW 13:50:27 10° NNE daylight
18 Aug - 22:16:24 10° N 22:23:14 20° NE 22:30:03 10° E visible
19 Aug - 00:18:12 10° NW 00:28:24 86° SW 00:38:33 10° SE night (unlit)
19 Aug - 02:27:31 10° W 02:33:38 18° SW 02:39:43 10° S night (unlit)
19 Aug - 11:05:59 10° SSW 11:14:31 41° SE 11:23:00 10° ENE daylight
19 Aug - 13:10:43 10° WSW 13:19:10 40° NW 13:27:43 10° NNE daylight
19 Aug - 21:53:54 10° N 22:00:13 18° NE 22:06:31 10° E visible
